Find Local Weather

World > North America > United States > Wisconsin

Sheboygan, Wisconsin Regional Weather

Lat: 43.75N, Lon: 87.72W
Wx Zone: WIZ052
Warning FLW WEATHER ALERT - (More Info. Click Here) Warning
Feedback
Expires:201808141100;;042958
ASUS43 KMKX 141021
RWRWI 

WISCONSIN REGIONAL WEATHER ROUNDUP
NATIONAL WEATHER SERVICE MILWAUKEE/SULLIVAN WI
500 AM CDT TUE AUG 14 2018

NOTE: "FAIR" INDICATES FEW OR NO CLOUDS BELOW 12,000 FEET WITH NO
SIGNIFICANT WEATHER AND/OR OBSTRUCTIONS TO VISIBILITY.


WIZ051-052-058>065-066-070>072-141100-
SOUTHEAST WISCONSIN
  
CITY           SKY/WX    TMP DP  RH WIND       PRES   REMARKS
MILWAUKEE      FAIR      73  67  81 W6        29.97F                  
WAUKESHA       FAIR      63  63 100 CALM      30.01R                  
MILWAUKEE/TIMM FAIR      64  61  88 W3        29.99S                  
RACINE         FAIR      70  66  87 W6        30.00S                  
BURLINGTON     FAIR      61  60  97 CALM      29.99S FOG              
KENOSHA        FAIR      67  66  97 W5        29.99S                  
FOND DU LAC    FAIR      68  64  87 SW6       29.98S                  
SHEBOYGAN      FAIR      64  62  93 W6        29.97R                  
WEST BEND      FAIR      63  63 100 CALM      29.99S FOG              
JUNEAU           N/A     63  63  99 CALM      30.00S FOG              
$$


SKY/WX - Weather  TMP - Temperature  DP - Dewpoint  RH - Relative Humidity
WIND - Wind Direction/Speed PRES - Barometric Pressure